Regional Weather Roundup
Issued by NWS

Home | Current Version | Previous Version | Graphics & Text | Print | Product List | Glossary On
Versions: 1 2 3 4 5 6 7 8 9 10 11 12 13 14 15 16 17 18 19 20 21 22 23 24 25 26 27 28 29 30 31 32 33 34 35 36 37 38 39 40 41 42 43 44 45 46 47 48 49 50
000
ASUS43 KMKX 100911
RWRWI

WISCONSIN REGIONAL WEATHER ROUNDUP
NATIONAL WEATHER SERVICE MILWAUKEE/SULLIVAN WI
400 AM CDT THU JUL 10 2014

NOTE: "FAIR" INDICATES FEW OR NO CLOUDS BELOW 12,000 FEET WITH NO
SIGNIFICANT WEATHER AND/OR OBSTRUCTIONS TO VISIBILITY.

WIZ001-002-006>008-014>016-023>028-101000-
NORTHWEST WISCONSIN

CITY           SKY/WX    TMP DP  RH WIND       PRES   REMARKS
SUPERIOR ARPT  MOCLDY    49  48  97 CALM      30.04S
ASHLAND        CLEAR     45  44  97 CALM      30.07S
HAYWARD        CLEAR     52  51  97 CALM      30.07S
SIREN          PTCLDY    57  54  89 S6        30.05S
RICE LAKE      PTCLDY    53  52  95 CALM      30.08S
LADYSMITH      CLEAR     53  50  88 E3        30.11R
EAU CLAIRE     CLEAR     55  54  96 CALM      30.06S
MENOMONIE      SUNNY     58  55  92 CALM      30.06S
NEW RICHMOND   PTCLDY    57  55  94 SE3       30.05S
OSCEOLA        PTCLDY    58  57  97 E5        30.07R
$$

WIZ003>005-009-010-017-018-101000-
NORTH CENTRAL WISCONSIN

CITY           SKY/WX    TMP DP  RH WIND       PRES   REMARKS
WOODRUFF       CLEAR     43  35  73 CALM      30.11R
RHINELANDER    CLEAR     43  42  97 CALM      30.12R
EAGLE RIVER    CLEAR     42  42 100 CALM      30.11S
LAND O LAKES   CLEAR     39  39 100 CALM      30.12S FOG
PHILLIPS       MOCLDY    48  46  95 CALM      30.10R
TOMAHAWK       FOG       40  39  97 CALM      30.12S VSB 3/4
MEDFORD        CLOUDY    49  48  99 CALM      30.10S
MERRILL        CLEAR     44  44 100 CALM      30.11S
$$

WIZ029-030-035-036-043>047-101000-
CENTRAL WISCONSIN

CITY           SKY/WX    TMP DP  RH WIND       PRES   REMARKS
WAUSAU         CLEAR     50  49  96 E3        30.10R
MOSINEE        CLEAR     50  50 100 CALM      30.12R
MARSHFIELD     CLEAR     53  50  89 CALM      30.10R
STEVENS POINT  CLEAR     47  45  95 CALM      30.12R
WAUPACA        CLEAR     51  49  94 CALM      30.12R
WAUTOMA        CLEAR     50  49  96 CALM      30.12R
WISC RAPIDS    CLEAR     51  49  92 CALM      30.12R
CAMP DOUGLAS   CLEAR     50  50 100 E5        30.09S FOG
$$

WIZ011>013-019>022-031-037>040-048>050-101000-
NORTHEAST WISCONSIN

CITY           SKY/WX    TMP DP  RH WIND       PRES   REMARKS
ANTIGO         CLEAR     44  43  97 CALM      30.12R
STURGEON BAY   CLEAR     52  48  87 S3        30.11S
GREEN BAY      CLEAR     52  51  97 CALM      30.11R
MANITOWOC      CLEAR     51  50  96 CALM      30.12R FOG
APPLETON       CLEAR     57  48  72 CALM      30.12R
CLINTONVILLE   CLEAR     50  46  87 CALM      30.11R
OSHKOSH        CLEAR     54  51  90 S3        30.10S
$$

WIZ032>034-041-042-053>061-101000-
SOUTHWEST WISCONSIN

CITY           SKY/WX    TMP DP  RH WIND       PRES   REMARKS
LA CROSSE      CLEAR     60  55  83 E9        30.06F
SPARTA         CLEAR     49  48  95 CALM      30.09S
VIROQUA        PTSUNNY   59  55  84 SE6       30.09S
BOSCOBEL       CLOUDY    57  55  93 CALM      30.09S FOG
PRAIRIE DU CHI CLEAR     60  57  88 CALM      30.07S
PLATTEVILLE    CLOUDY    61  55  82 E7        30.09F
$$

WIZ056-057-062-063-064-067-068-101000-
SOUTH CENTRAL WISCONSIN

CITY           SKY/WX    TMP DP  RH WIND       PRES   REMARKS
BARABOO/DELLS  CLEAR     55  52  88 CALM      30.10S
LONE ROCK      CLEAR     56  52  86 CALM      30.10S
WATERTOWN      CLEAR     54  53  97 CALM      30.10S
MADISON        CLEAR     54  52  93 CALM      30.10S
MIDDLETON      FAIR      53  53 100 CALM      30.11S
MONROE         CLEAR     59  54  82 SE6       30.10S
JANESVILLE     CLEAR     55  52  88 CALM      30.10S
$$

WIZ051-052-058>065-066-070>072-101000-
SOUTHEAST WISCONSIN

CITY           SKY/WX    TMP DP  RH WIND       PRES   REMARKS
MILWAUKEE      MOCLDY    59  54  83 E3        30.11S
WAUKESHA       CLEAR     50  48  93 CALM      30.13S
MILWAUKEE/TIMM PTCLDY    55  52  88 CALM      30.12S
RACINE         PTCLDY    57  55  93 CALM      30.13R
BURLINGTON     CLEAR     50  50 100 CALM      30.11S
KENOSHA        MOCLDY    55  54  96 CALM      30.11S
FOND DU LAC    CLEAR     52  50  93 CALM      30.11S
SHEBOYGAN      FOG       53  53 100 SW3       30.12R VSB 1/4
WEST BEND      PTCLDY    50  48  93 CALM      30.12R
JUNEAU         PTCLDY    55  39  54 E3        30.12S
$$

LSZ147-162-101000-
LAKE SUPERIOR

STATION/POSITION TIME  TEMP    WIND        PRES    WAVE
                       AIR SEA DIR/SP/G            HT/PER
                 (UTC) (F)     (DEG/KT/KT) (MB)    (FT/S)
W MID LAKE BUOY  0850   44 38  260/  2/  2 1017.9F   0
DEVILS ISLAND    0900   59     210/  8/  9 1017.9R
PORT WING        0800   57     130/  2/  4 1017.3S
SAXON HARBOR     0800          200/  7/  9 1017.9R
$$

LMZ867-665-643>646-101000-
LAKE MICHIGAN

STATION/POSITION TIME  TEMP    WIND        PRES    WAVE
                       AIR SEA DIR/SP/G            HT/PER
                 (UTC) (F)     (DEG/KT/KT) (MB)    (FT/S)
N MID LAKE BUOY  0850   55 53  200/  4/  4 1019.3R   0
NORTHPORT PIER   0800   57     190/  4/  5 1019.0R
KEWAUNEE LAKESHO 0800   52      CALM  /  1 1020.0R
SHEBOYGAN LAKESH 0900   58     210/  2/  2 1020.1R
PORT WASHINGTON  0840   54      CALM  /  1 1020.3R
ATWATER BUOY     0800   54     320/  2     1020.4R
MILWAUKEE LAKESH 0800   57      70/  2/  3   N/A
S MID LAKE BUOY  0850   59 55   CALM  /  2 1019.8R   0
KENOSHA   LAKESH 0900   57     350/  3/  4   N/A
$$

TC  - TEMPERATURE IN CELSIUS
VSB - VISIBILITY IN STATUTE MILES
WCI - WIND CHILL INDEX
HX  - HEAT INDEX




USA.gov is the U.S. government's official web portal to all federal, state and local government web resources and services.